STARLINK-37245, 68547

Orbit data source: Space-Track

STARLINK-37245, 68547 is a payload satellite owned by SpaceX/Seattle (US) in LEO that was launched on Thu, 02 Apr 2026 UTC via an FALCON 9 launch vehicle from the Air Force Eastern Test Range (AFETR). Payload-class satellites include a variety of spacecraft equipped with specific instruments for various scientific and technological missions. These include communications satellites like Starlink; space stations such as the ISS; scientific satellites like the Hubble; Earth observation satellites from companies like Planet Labs, Umbra, and HawkEye 360; GPS; miniature CubeSats for education and research; and military/defense satellites.

Loading next visibility...
Identifier
68547, 2026-070F
Orbit
LEO
Country
Flag of USUS
Related business
Manufacturer
SpaceX/Seattle
Mission
Operational spacecraft
Bus & Motor
STARLINK V2MO, Unknown motor
Mass
575 kg wet, ~530 kg dry
Launch date (UTC)
2026-04-02 (2 months ago)
Launch vehicle
FALCON 9
Launch site
Air Force Eastern Test Range (AFETR)
Object type
Payload
Rocket body
Debris
Shape & HBR
Unknown shape, 14.5 m
Radar Cross Section
Large (>1 m²)

Expand to show TLE details & history
Last TLE update: 6 hours ago

TLE from 6 hours ago
0 STARLINK-37245
1 68547U 26070F   26150.80163500  .00050111  00000-0  14832-2 0  9990
2 68547  53.1599 340.6739 0000965 122.6119 237.4977 15.34425177  9139
Epoch: 2026-05-30T19:14Z
TLE epoch observation values (Epoch: 2026-05-30T19:14:21.263Z)
Latitude
-0.00004°
Longitude
163.77283°
Altitude
463.885 km
Speed
7.636 km/s
True Right ascension
22h 42m 41s
True Declination
0° 00' 00"
Sunlit
Object was in daylight at epoch
Visualization orbit readout
Latitude
Unknown
Longitude
Unknown
Altitude
Unknown
Speed
Unknown
Apparent Right ascension
Unknown
Apparent Declination
Unknown
Sunlit
N/A
Visualization observer readout
Local Sidereal Time
10:50:23
Azimuth
Unknown
Elevation
Unknown
Doppler factor
Unknown
Orbital elements
Apogee altitude
463.545 km
Perigee altitude
462.225 km
Semi-major axis
6,841.022 km
Eccentricity
0.0001
Inclination
53.1599°
RAAN
340.6739°
Arg. of periapsis
122.6119°
True anomaly
237.48837°
Mean anomaly
237.4977°
Eccentric anomaly
237.49304°
Mean motion
3.83585 °/min
Orbital period
93.85 mins
BSTAR
0.0014832
Loading maneuver chart data...
Computing Atmospheric mass density...
Loading historical data...
Loading historical data...
Loading historical data...
Loading historical data...
Loading historical data...
Loading historical data...
Loading historical data...

Documentation

Showing up to 5 results
|